SP5FLS-15 Weather Reports


time (UTC)temp
F
wind
direction
speed
knots
gust
knots
rain 1hr
in
rain 24hr
in
rain mn
in
humidity
%
barometer
mb
20260507002502 56 0.0 0.0 0.00 0.00 0.00 99 1003.6
20260507002002 56 0.0 0.0 0.00 0.00 0.00 98 1003.7
20260507001502 56 0.0 0.0 0.00 0.00 0.00 10 1003.6
20260507001002 56 0.0 0.0 0.00 0.00 0.00 99 1003.7
20260507000502 57 0.0 0.0 0.00 0.00 0.00 96 1003.6
20260507000002 57 0.0 0.0 0.00 0.00 0.00 98 1003.8
20260506235502 57 0.0 0.0 0.00 0.00 0.00 94 1003.8
20260506235002 57 0.0 0.0 0.00 0.00 0.00 89 1003.9
20260506234502 57 0.0 0.0 0.00 0.00 0.00 48 1003.6
20260506234002 58 0.0 0.0 0.00 0.00 0.00 64 1003.9
20260506233502 58 0.0 0.0 0.00 0.00 0.00 70 1004.1
20260506233002 58 0.0 0.0 0.00 0.00 0.00 72 1004.0
20260506232502 58 0.0 0.0 0.00 0.00 0.00 72 1004.0
20260506232002 58 0.0 0.0 0.00 0.00 0.00 71 1003.8
20260506231502 57 0.0 0.0 0.00 0.00 0.00 69 1003.7
20260506231002 57 0.0 0.0 0.00 0.00 0.00 67 1003.8
20260506230501 57 0.0 0.0 0.00 0.00 0.00 67 1003.7
20260506230002 56 0.0 0.0 0.00 0.00 0.00 70 1003.5
20260506225501 56 0.0 0.0 0.00 0.00 0.00 72 1003.4
20260506225002 56 0.0 0.0 0.00 0.00 0.00 72 1003.3
20260506224501 56 0.0 0.0 0.00 0.00 0.00 73 1003.4
20260506224002 56 0.0 0.0 0.00 0.00 0.00 72 1003.6
20260506223501 56 0.0 0.0 0.00 0.00 0.00 72 1003.5
20260506223002 56 0.0 0.0 0.00 0.00 0.00 74 1003.4
20260506222502 56 0.0 0.0 0.00 0.00 0.00 74 1003.4
20260506222002 56 0.0 0.0 0.00 0.00 0.00 73 1003.5
20260506221501 56 0.0 0.0 0.00 0.00 0.00 71 1003.5
20260506221002 56 0.0 0.0 0.00 0.00 0.00 73 1003.4
20260506220501 56 0.0 0.0 0.00 0.00 0.00 73 1003.4
20260506220002 56 0.0 0.0 0.00 0.00 0.00 76 1003.2
20260506215501 56 0.0 0.0 0.00 0.00 0.00 78 1003.2
20260506215002 56 0.0 0.0 0.00 0.00 0.00 77 1003.4
20260506214501 56 0.0 0.0 0.00 0.00 0.00 80 1003.4
20260506214002 56 0.0 0.0 0.00 0.00 0.00 79 1003.4
20260506213501 57 0.0 0.0 0.00 0.00 0.00 78 1003.5
20260506213002 57 0.0 0.0 0.00 0.00 0.00 80 1003.6
20260506212501 57 0.0 0.0 0.00 0.00 0.00 80 1003.6
20260506212002 57 0.0 0.0 0.00 0.00 0.00 80 1003.4
20260506211501 57 0.0 0.0 0.00 0.00 0.00 80 1003.4
20260506211002 57 0.0 0.0 0.00 0.00 0.00 82 1003.3
20260506210501 57 0.0 0.0 0.00 0.00 0.00 84 1003.3
20260506210002 56 0.0 0.0 0.00 0.00 0.00 85 1003.3
20260506205501 57 0.0 0.0 0.00 0.00 0.00 86 1003.2
20260506205002 57 0.0 0.0 0.00 0.00 0.00 87 1003.3
20260506204501 57 0.0 0.0 0.00 0.00 0.00 90 1003.3
20260506204002 57 0.0 0.0 0.00 0.00 0.00 91 1003.5
20260506203501 57 0.0 0.0 0.00 0.00 0.00 90 1003.5
20260506203002 57 0.0 0.0 0.00 0.00 0.00 92 1003.6
20260506202501 58 0.0 0.0 0.00 0.00 0.00 97 1003.7
20260506202007 58 0.0 0.0 0.00 0.00 0.00 99 1003.6
20260506201501 58 0.0 0.0 0.00 0.00 0.00 10 1003.7
20260506201002 58 0.0 0.0 0.00 0.00 0.00 10 1003.6
20260506200501 58 0.0 0.0 0.00 0.00 0.00 10 1003.6
20260506200002 58 0.0 0.0 0.00 0.00 0.00 10 1003.5
20260506195501 58 0.0 0.0 0.00 0.00 0.00 10 1003.5
20260506195002 58 0.0 0.0 0.00 0.00 0.00 10 1003.5
20260506194501 58 0.0 0.0 0.00 0.00 0.00 10 1003.5
20260506194002 58 0.0 0.0 0.00 0.00 0.00 10 1003.5
20260506193501 58 0.0 0.0 0.00 0.00 0.00 10 1003.5
20260506193002 59 0.0 0.0 0.00 0.00 0.00 10 1003.5
20260506192002 59 0.0 0.0 0.00 0.00 0.00 10 1003.5
20260506191002 59 0.0 0.0 0.00 0.00 0.00 10 1003.4
20260506190502 60 0.0 0.0 0.00 0.00 0.00 10 1003.4
20260506190001 60 0.0 0.0 0.00 0.00 0.00 10 1003.3
20260506185502 60 0.0 0.0 0.00 0.00 0.00 10 1003.3
20260506185001 61 0.0 0.0 0.00 0.00 0.00 10 1003.3
20260506184502 61 0.0 0.0 0.00 0.00 0.00 10 1003.2
20260506184002 61 0.0 0.0 0.00 0.00 0.00 10 1003.1
20260506183502 62 0.0 0.0 0.00 0.00 0.00 10 1003.1
20260506183002 62 0.0 0.0 0.00 0.00 0.00 10 1003.0
20260506182501 62 0.0 0.0 0.00 0.00 0.00 10 1002.9
20260506182002 62 0.0 0.0 0.00 0.00 0.00 10 1002.8
20260506181501 62 0.0 0.0 0.00 0.00 0.00 10 1002.8
20260506181002 62 0.0 0.0 0.00 0.00 0.00 10 1002.8
20260506180501 63 0.0 0.0 0.00 0.00 0.00 10 1002.8
20260506180002 63 0.0 0.0 0.00 0.00 0.00 10 1002.9
20260506175502 64 0.0 0.0 0.00 0.00 0.00 10 1002.8
20260506175002 65 0.0 0.0 0.00 0.00 0.00 10 1002.9
20260506174502 65 0.0 0.0 0.00 0.00 0.00 10 1002.8
20260506174002 66 0.0 0.0 0.00 0.00 0.00 10 1002.8
20260506173502 67 0.0 0.0 0.00 0.00 0.00 10 1002.8
20260506173002 66 0.0 0.0 0.00 0.00 0.00 10 1002.7
20260506172502 66 0.0 0.0 0.00 0.00 0.00 10 1002.7
20260506172002 66 0.0 0.0 0.00 0.00 0.00 10 1002.8
20260506171502 66 0.0 0.0 0.00 0.00 0.00 10 1002.6
20260506171001 66 0.0 0.0 0.00 0.00 0.00 10 1002.6
20260506170502 66 0.0 0.0 0.00 0.00 0.00 10 1002.4
20260506170002 66 0.0 0.0 0.00 0.00 0.00 10 1002.5
20260506165502 66 0.0 0.0 0.00 0.00 0.00 10 1002.4
20260506165002 66 0.0 0.0 0.00 0.00 0.00 10 1002.5
20260506164502 67 0.0 0.0 0.00 0.00 0.00 10 1002.4
20260506164002 68 0.0 0.0 0.00 0.00 0.00 10 1002.4
20260506163501 68 0.0 0.0 0.00 0.00 0.00 10 1002.5
20260506163002 68 0.0 0.0 0.00 0.00 0.00 10 1002.5
20260506162502 69 0.0 0.0 0.00 0.00 0.00 10 1002.4
20260506162002 69 0.0 0.0 0.00 0.00 0.00 10 1002.5
20260506161502 71 0.0 0.0 0.00 0.00 0.00 10 1002.4
20260506161002 70 0.0 0.0 0.00 0.00 0.00 10 1002.4
20260506160502 71 0.0 0.0 0.00 0.00 0.00 10 1002.4
20260506160001 71 0.0 0.0 0.00 0.00 0.00 10 1002.5
20260506155502 72 0.0 0.0 0.00 0.00 0.00 10 1002.4
20260506155002 72 0.0 0.0 0.00 0.00 0.00 10 1002.4
20260506154502 72 0.0 0.0 0.00 0.00 0.00 10 1002.4
20260506154002 73 0.0 0.0 0.00 0.00 0.00 10 1002.4
20260506153501 73 0.0 0.0 0.00 0.00 0.00 10 1002.5
20260506153002 73 0.0 0.0 0.00 0.00 0.00 10 1002.5
20260506152501 74 0.0 0.0 0.00 0.00 0.00 10 1002.6
20260506152002 73 0.0 0.0 0.00 0.00 0.00 10 1002.6
20260506151502 74 0.0 0.0 0.00 0.00 0.00 10 1002.5
20260506151002 73 0.0 0.0 0.00 0.00 0.00 10 1002.6
20260506150502 73 0.0 0.0 0.00 0.00 0.00 10 1002.5
20260506150002 74 0.0 0.0 0.00 0.00 0.00 10 1002.6
20260506145502 74 0.0 0.0 0.00 0.00 0.00 10 1002.7
20260506145002 75 0.0 0.0 0.00 0.00 0.00 10 1002.6
20260506144502 74 0.0 0.0 0.00 0.00 0.00 10 1002.7
20260506144002 74 0.0 0.0 0.00 0.00 0.00 10 1002.8
20260506143502 74 0.0 0.0 0.00 0.00 0.00 10 1002.7
20260506143002 75 0.0 0.0 0.00 0.00 0.00 10 1002.6
20260506142501 75 0.0 0.0 0.00 0.00 0.00 10 1002.7
20260506142002 75 0.0 0.0 0.00 0.00 0.00 10 1002.7
20260506140502 74 0.0 0.0 0.00 0.00 0.00 10 1002.6
20260506140002 74 0.0 0.0 0.00 0.00 0.00 10 1002.6
20260506135002 75 0.0 0.0 0.00 0.00 0.00 10 1002.8
20260506134502 75 0.0 0.0 0.00 0.00 0.00 10 1002.7
20260506134002 74 0.0 0.0 0.00 0.00 0.00 10 1002.7
20260506133502 76 0.0 0.0 0.00 0.00 0.00 10 1002.7
20260506133002 76 0.0 0.0 0.00 0.00 0.00 10 1002.7
20260506132502 76 0.0 0.0 0.00 0.00 0.00 10 1002.7
20260506132002 76 0.0 0.0 0.00 0.00 0.00 10 1002.7
20260506131502 76 0.0 0.0 0.00 0.00 0.00 10 1002.6
20260506131002 75 0.0 0.0 0.00 0.00 0.00 10 1002.8
20260506130502 75 0.0 0.0 0.00 0.00 0.00 10 1002.7
20260506130002 74 0.0 0.0 0.00 0.00 0.00 10 1002.7
20260506125502 74 0.0 0.0 0.00 0.00 0.00 10 1002.8
20260506125007 75 0.0 0.0 0.00 0.00 0.00 10 1002.8
20260506124502 74 0.0 0.0 0.00 0.00 0.00 10 1002.7
20260506124002 76 0.0 0.0 0.00 0.00 0.00 10 1002.8
20260506123501 75 0.0 0.0 0.00 0.00 0.00 10 1002.7
20260506123001 76 0.0 0.0 0.00 0.00 0.00 10 1002.7
20260506122502 75 0.0 0.0 0.00 0.00 0.00 10 1002.9
20260506122002 75 0.0 0.0 0.00 0.00 0.00 10 1002.9
20260506121502 75 0.0 0.0 0.00 0.00 0.00 10 1002.9
20260506121002 74 0.0 0.0 0.00 0.00 0.00 10 1002.9
20260506120502 74 0.0 0.0 0.00 0.00 0.00 10 1003.0
20260506120002 74 0.0 0.0 0.00 0.00 0.00 10 1002.9
20260506115501 73 0.0 0.0 0.00 0.00 0.00 10 1002.9
20260506115002 73 0.0 0.0 0.00 0.00 0.00 10 1002.9
20260506114501 73 0.0 0.0 0.00 0.00 0.00 10 1002.9
20260506114002 73 0.0 0.0 0.00 0.00 0.00 10 1002.8
20260506113002 72 0.0 0.0 0.00 0.00 0.00 10 1003.0
20260506112502 74 0.0 0.0 0.00 0.00 0.00 10 1002.8
20260506112001 74 0.0 0.0 0.00 0.00 0.00 10 1002.8
20260506111502 75 0.0 0.0 0.00 0.00 0.00 10 1002.8
20260506111002 74 0.0 0.0 0.00 0.00 0.00 10 1002.6
20260506110502 75 0.0 0.0 0.00 0.00 0.00 10 1002.6
20260506110002 75 0.0 0.0 0.00 0.00 0.00 10 1002.7
20260506105502 73 0.0 0.0 0.00 0.00 0.00 10 1002.8
20260506105002 75 0.0 0.0 0.00 0.00 0.00 10 1002.7
20260506104502 73 0.0 0.0 0.00 0.00 0.00 10 1002.6
20260506104002 74 0.0 0.0 0.00 0.00 0.00 10 1002.7
20260506103502 73 0.0 0.0 0.00 0.00 0.00 10 1002.6
20260506103002 71 0.0 0.0 0.00 0.00 0.00 10 1002.6
20260506102502 72 0.0 0.0 0.00 0.00 0.00 10 1002.8
20260506102002 72 0.0 0.0 0.00 0.00 0.00 10 1002.5
20260506101502 71 0.0 0.0 0.00 0.00 0.00 10 1002.7
20260506100502 71 0.0 0.0 0.00 0.00 0.00 10 1002.7
20260506100002 71 0.0 0.0 0.00 0.00 0.00 10 1002.7
20260506095502 70 0.0 0.0 0.00 0.00 0.00 10 1002.7
20260506095002 70 0.0 0.0 0.00 0.00 0.00 10 1002.6
20260506094501 71 0.0 0.0 0.00 0.00 0.00 10 1002.7
20260506093502 71 0.0 0.0 0.00 0.00 0.00 10 1002.7
20260506093002 71 0.0 0.0 0.00 0.00 0.00 10 1002.8
20260506092501 71 0.0 0.0 0.00 0.00 0.00 10 1002.9
20260506092002 71 0.0 0.0 0.00 0.00 0.00 10 1003.0
20260506091501 69 0.0 0.0 0.00 0.00 0.00 10 1002.9
20260506091002 69 0.0 0.0 0.00 0.00 0.00 10 1002.8
20260506090502 70 0.0 0.0 0.00 0.00 0.00 10 1002.7
20260506090002 70 0.0 0.0 0.00 0.00 0.00 10 1002.8
20260506085502 69 0.0 0.0 0.00 0.00 0.00 10 1002.7
20260506085002 68 0.0 0.0 0.00 0.00 0.00 10 1002.6
20260506084503 70 0.0 0.0 0.00 0.00 0.00 10 1002.5
20260506084002 69 0.0 0.0 0.00 0.00 0.00 10 1002.6
20260506083501 68 0.0 0.0 0.00 0.00 0.00 10 1002.6
20260506083002 68 0.0 0.0 0.00 0.00 0.00 10 1002.6
20260506082502 68 0.0 0.0 0.00 0.00 0.00 10 1002.6
20260506082002 68 0.0 0.0 0.00 0.00 0.00 10 1002.6
20260506081001 68 0.0 0.0 0.00 0.00 0.00 10 1002.3
20260506080502 68 0.0 0.0 0.00 0.00 0.00 10 1002.3
20260506073501 66 0.0 0.0 0.00 0.00 0.00 10 1002.4
20260506073002 65 0.0 0.0 0.00 0.00 0.00 10 1002.3
20260506072502 66 0.0 0.0 0.00 0.00 0.00 10 1002.5
20260506072002 66 0.0 0.0 0.00 0.00 0.00 10 1002.5
20260506071001 66 0.0 0.0 0.00 0.00 0.00 10 1002.7
20260506070502 65 0.0 0.0 0.00 0.00 0.00 10 1002.6
20260506062501 60 0.0 0.0 0.00 0.00 0.00 97 1002.7
20260506062002 60 0.0 0.0 0.00 0.00 0.00 92 1002.5
20260506061502 59 0.0 0.0 0.00 0.00 0.00 80 1002.7
20260506061002 59 0.0 0.0 0.00 0.00 0.00 76 1003.2
20260506060502 59 0.0 0.0 0.00 0.00 0.00 76 1003.0
20260506051002 53 0.0 0.0 0.00 0.00 0.00 99 1002.6
20260506050502 52 0.0 0.0 0.00 0.00 0.00 10 1003.0
20260506045002 50 0.0 0.0 0.00 0.00 0.00 91 1002.8
20260506044502 50 0.0 0.0 0.00 0.00 0.00 92 1003.3
20260506044002 50 0.0 0.0 0.00 0.00 0.00 31 1002.6
20260506043502 49 0.0 0.0 0.00 0.00 0.00 36 1002.6
20260506043002 49 0.0 0.0 0.00 0.00 0.00 36 1002.6
20260506042502 49 0.0 0.0 0.00 0.00 0.00 36 1003.1
20260506042001 48 0.0 0.0 0.00 0.00 0.00 34 1002.9
20260506041502 48 0.0 0.0 0.00 0.00 0.00 34 1003.0
20260506041001 48 0.0 0.0 0.00 0.00 0.00 33 1002.8
20260506040501 48 0.0 0.0 0.00 0.00 0.00 32 1003.0
20260506040002 48 0.0 0.0 0.00 0.00 0.00 36 1002.8
20260506035502 48 0.0 0.0 0.00 0.00 0.00 38 1003.1
20260506035002 48 0.0 0.0 0.00 0.00 0.00 32 1003.0
20260506034502 48 0.0 0.0 0.00 0.00 0.00 34 1002.9
20260506034002 47 0.0 0.0 0.00 0.00 0.00 36 1003.3
20260506033002 48 0.0 0.0 0.00 0.00 0.00 34 1003.2
20260506032502 48 0.0 0.0 0.00 0.00 0.00 33 1003.2
20260506032001 48 0.0 0.0 0.00 0.00 0.00 34 1003.0
20260506031502 48 0.0 0.0 0.00 0.00 0.00 36 1003.0
20260506031002 48 0.0 0.0 0.00 0.00 0.00 34 1003.2
20260506030502 48 0.0 0.0 0.00 0.00 0.00 31 1003.3
20260506030002 48 0.0 0.0 0.00 0.00 0.00 88 1003.2
20260506025502 48 0.0 0.0 0.00 0.00 0.00 31 1003.1
20260506025002 48 0.0 0.0 0.00 0.00 0.00 40 1003.2
20260506024501 49 0.0 0.0 0.00 0.00 0.00 37 1003.2
20260506024002 48 0.0 0.0 0.00 0.00 0.00 38 1003.0
20260506023501 48 0.0 0.0 0.00 0.00 0.00 38 1003.5
20260506023002 48 0.0 0.0 0.00 0.00 0.00 38 1003.2
20260506022501 48 0.0 0.0 0.00 0.00 0.00 46 1003.0
20260506022001 48 0.0 0.0 0.00 0.00 0.00 48 1003.4
20260506021501 48 0.0 0.0 0.00 0.00 0.00 42 1003.5
20260506021001 48 0.0 0.0 0.00 0.00 0.00 42 1003.4
20260506020502 48 0.0 0.0 0.00 0.00 0.00 44 1003.4
20260506020001 49 0.0 0.0 0.00 0.00 0.00 41 1003.4
20260506015502 48 0.0 0.0 0.00 0.00 0.00 46 1003.4
20260506015002 49 0.0 0.0 0.00 0.00 0.00 45 1003.5
20260506014502 49 0.0 0.0 0.00 0.00 0.00 49 1003.5
20260506014002 49 0.0 0.0 0.00 0.00 0.00 47 1003.4
20260506013502 49 0.0 0.0 0.00 0.00 0.00 48 1003.6
20260506013001 49 0.0 0.0 0.00 0.00 0.00 49 1003.5
20260506012502 49 0.0 0.0 0.00 0.00 0.00 56 1003.7
20260506012002 50 0.0 0.0 0.00 0.00 0.00 55 1003.7
20260506011502 50 0.0 0.0 0.00 0.00 0.00 59 1003.6
20260506011002 50 0.0 0.0 0.00 0.00 0.00 58 1003.7
20260506010502 50 0.0 0.0 0.00 0.00 0.00 58 1003.7
20260506010002 50 0.0 0.0 0.00 0.00 0.00 63 1003.8
20260506005502 50 0.0 0.0 0.00 0.00 0.00 62 1003.6
20260506005002 50 0.0 0.0 0.00 0.00 0.00 62 1003.7
20260506004501 50 0.0 0.0 0.00 0.00 0.00 68 1003.6
20260506004002 51 0.0 0.0 0.00 0.00 0.00 69 1003.6
20260506003501 51 0.0 0.0 0.00 0.00 0.00 66 1003.5
20260506003001 51 0.0 0.0 0.00 0.00 0.00 68 1003.6